Location: Gourdan-Polignan
(43.0709°N, 0.5748°E)
Time: 11:28:49
(UTC+00:00)

Delta 2 Rocket - Pass Details

Date: 15 May 2026
Orbit: 321 x 412 km, 35.6° (Epoch: 8 June)

Event Time Altitude Azimuth Distance (km) Brightness Sun altitude
Rises 19:41:48 0° 240° (WSW) 2,270 6.9 -5.2°
Reaches altitude 10° 19:44:17 10° 222° (SW) 1,390 5.5 -5.6°
Maximum altitude 19:46:37 19° 175° (S) 959 4.2 -5.9°
Drops below altitude 10° 19:48:52 10° 126° (SE) 1,343 4.6 -6.3°
Enters shadow 19:49:14 - 122° (ESE) 1,452 4.8 -6.3°
